Time,TemperatureF,DewpointF,PressureIn,WindDirection,WindDirectionDegrees,WindSpeedMPH,WindSpeedGustMPH,Humidity,HourlyPrecipIn,Conditions,Clouds,dailyrainin,SoftwareType,DateUTC
2013-05-12 00:05:00,41.0,40.0,29.56,NE,52,2.0,5.0,95,0.00,,,0.06,weatherlink.com 1.10,2013-05-12 08:05:00,
2013-05-12 00:20:00,41.0,40.0,29.56,NE,52,2.0,4.0,95,0.00,,,0.06,weatherlink.com 1.10,2013-05-12 08:20:00,
2013-05-12 00:35:00,41.0,40.0,29.56,NE,52,3.0,3.0,95,0.00,,,0.00,weatherlink.com 1.10,2013-05-12 08:35:00,
2013-05-12 00:50:00,41.0,40.0,29.55,NE,52,0.0,1.0,96,0.00,,,0.00,weatherlink.com 1.10,2013-05-12 08:50:00,
2013-05-12 01:05:00,40.6,39.0,29.55,NE,52,1.0,2.0,95,0.00,,,0.00,weatherlink.com 1.10,2013-05-12 09:05:00,
2013-05-12 01:20:00,39.8,39.0,29.55,NE,52,0.0,2.0,95,0.00,,,0.00,weatherlink.com 1.10,2013-05-12 09:20:00,
2013-05-12 01:35:00,40.5,40.0,29.55,NE,52,0.0,2.0,96,0.00,,,0.00,weatherlink.com 1.10,2013-05-12 09:35:00,
2013-05-12 01:50:00,39.7,38.0,29.55,NE,52,0.0,1.0,95,0.00,,,0.00,weatherlink.com 1.10,2013-05-12 09:50:00,
2013-05-12 02:05:00,39.6,38.0,29.55,NE,52,1.0,2.0,95,0.00,,,0.00,weatherlink.com 1.10,2013-05-12 10:05:00,
2013-05-12 02:20:00,39.5,39.0,29.55,NE,52,1.0,2.0,96,0.00,,,0.00,weatherlink.com 1.10,2013-05-12 10:20:00,
2013-05-12 02:35:00,39.3,38.0,29.54,NE,52,1.0,2.0,95,0.00,,,0.00,weatherlink.com 1.10,2013-05-12 10:35:00,
2013-05-12 02:50:00,39.3,38.0,29.54,NE,52,0.0,2.0,96,0.00,,,0.00,weatherlink.com 1.10,2013-05-12 10:50:00,
2013-05-12 03:05:00,39.5,39.0,29.54,NE,52,0.0,2.0,96,0.00,,,0.00,weatherlink.com 1.10,2013-05-12 11:05:00,
2013-05-12 03:20:00,39.5,39.0,29.53,NE,52,0.0,2.0,96,0.00,,,0.00,weatherlink.com 1.10,2013-05-12 11:20:00,
2013-05-12 03:35:00,39.5,38.0,29.53,NE,52,1.0,2.0,95,0.00,,,0.00,weatherlink.com 1.10,2013-05-12 11:35:00,
2013-05-12 03:50:00,39.1,38.0,29.53,NE,52,0.0,3.0,96,0.00,,,0.00,weatherlink.com 1.10,2013-05-12 11:50:00,
2013-05-12 04:05:00,38.9,38.0,29.52,NE,52,1.0,2.0,96,0.00,,,0.00,weatherlink.com 1.10,2013-05-12 12:05:00,
2013-05-12 04:20:00,39.1,38.0,29.52,NE,52,0.0,2.0,96,0.00,,,0.00,weatherlink.com 1.10,2013-05-12 12:20:00,
2013-05-12 04:35:00,40.0,39.0,29.52,NE,52,0.0,1.0,97,0.00,,,0.00,weatherlink.com 1.10,2013-05-12 12:35:00,
2013-05-12 04:50:00,39.6,39.0,29.52,NE,52,0.0,2.0,96,0.00,,,0.00,weatherlink.com 1.10,2013-05-12 12:50:00,
2013-05-12 05:05:00,39.2,38.0,29.52,NE,52,2.0,2.0,96,0.00,,,0.00,weatherlink.com 1.10,2013-05-12 13:05:00,
2013-05-12 05:20:00,39.0,38.0,29.52,NE,52,0.0,3.0,96,0.00,,,0.00,weatherlink.com 1.10,2013-05-12 13:20:00,
2013-05-12 05:35:00,39.6,39.0,29.52,NE,52,0.0,1.0,96,0.00,,,0.00,weatherlink.com 1.10,2013-05-12 13:35:00,
2013-05-12 05:50:00,40.0,39.0,29.51,NE,52,1.0,1.0,96,0.00,,,0.00,weatherlink.com 1.10,2013-05-12 13:50:00,
2013-05-12 06:05:00,39.1,38.0,29.51,NE,52,0.0,3.0,95,0.00,,,0.00,weatherlink.com 1.10,2013-05-12 14:05:00,
2013-05-12 06:20:00,39.5,39.0,29.51,NE,52,1.0,1.0,96,0.00,,,0.00,weatherlink.com 1.10,2013-05-12 14:20:00,
2013-05-12 06:36:00,39.4,39.0,29.51,NE,52,2.0,3.0,97,0.00,,,0.00,weatherlink.com 1.10,2013-05-12 14:36:00,
2013-05-12 06:51:00,40.1,39.0,29.51,NE,52,0.0,2.0,97,0.00,,,0.00,weatherlink.com 1.10,2013-05-12 14:51:00,
2013-05-12 07:06:00,40.4,39.0,29.51,NE,52,0.0,1.0,96,0.00,,,0.00,weatherlink.com 1.10,2013-05-12 15:06:00,
2013-05-12 07:21:00,40.8,40.0,29.51,NE,52,0.0,0.0,96,0.00,,,0.00,weatherlink.com 1.10,2013-05-12 15:21:00,
2013-05-12 07:36:00,41.3,40.0,29.51,NE,52,0.0,0.0,96,0.00,,,0.00,weatherlink.com 1.10,2013-05-12 15:36:00,
2013-05-12 07:51:00,41.9,41.0,29.51,NE,52,2.0,2.0,96,0.00,,,0.00,weatherlink.com 1.10,2013-05-12 15:51:00,
2013-05-12 08:06:00,42.0,41.0,29.51,NE,52,0.0,2.0,95,0.00,,,0.00,weatherlink.com 1.10,2013-05-12 16:06:00,
2013-05-12 08:21:00,42.3,41.0,29.51,NE,52,0.0,1.0,95,0.00,,,0.00,weatherlink.com 1.10,2013-05-12 16:21:00,
2013-05-12 08:36:00,43.1,42.0,29.51,NE,52,0.0,1.0,95,0.00,,,0.00,weatherlink.com 1.10,2013-05-12 16:36:00,
2013-05-12 08:51:00,44.2,43.0,29.51,NE,52,0.0,0.0,94,0.00,,,0.00,weatherlink.com 1.10,2013-05-12 16:51:00,
2013-05-12 09:06:00,44.8,42.0,29.51,NE,52,0.0,2.0,91,0.00,,,0.00,weatherlink.com 1.10,2013-05-12 17:06:00,
2013-05-12 09:21:00,45.0,43.0,29.51,NE,52,0.0,2.0,91,0.00,,,0.00,weatherlink.com 1.10,2013-05-12 17:21:00,
2013-05-12 09:36:00,44.6,43.0,29.51,NE,52,0.0,0.0,92,0.00,,,0.00,weatherlink.com 1.10,2013-05-12 17:36:00,
2013-05-12 09:51:00,45.2,43.0,29.51,NE,52,0.0,1.0,91,0.00,,,0.00,weatherlink.com 1.10,2013-05-12 17:51:00,
2013-05-12 10:06:00,45.0,42.0,29.52,NE,52,3.0,3.0,89,0.00,,,0.00,weatherlink.com 1.10,2013-05-12 18:06:00,
2013-05-12 10:21:00,44.5,42.0,29.52,ESE,116,2.0,5.0,90,0.00,,,0.00,weatherlink.com 1.10,2013-05-12 18:21:00,
2013-05-12 10:36:00,44.6,42.0,29.52,ESE,119,2.0,4.0,91,0.00,,,0.00,weatherlink.com 1.10,2013-05-12 18:36:00,
2013-05-12 10:51:00,44.5,42.0,29.52,ESE,119,1.0,3.0,92,0.00,,,0.00,weatherlink.com 1.10,2013-05-12 18:51:00,
2013-05-12 11:06:00,44.8,43.0,29.52,ESE,119,1.0,4.0,92,0.00,,,0.00,weatherlink.com 1.10,2013-05-12 19:06:00,
2013-05-12 11:21:00,45.0,43.0,29.52,ESE,119,1.0,4.0,91,0.00,,,0.00,weatherlink.com 1.10,2013-05-12 19:21:00,
2013-05-12 11:36:00,45.6,43.0,29.52,ESE,119,2.0,3.0,90,0.00,,,0.00,weatherlink.com 1.10,2013-05-12 19:36:00,
2013-05-12 11:51:00,45.5,43.0,29.52,ESE,119,1.0,5.0,89,0.00,,,0.00,weatherlink.com 1.10,2013-05-12 19:51:00,
2013-05-12 12:06:00,45.8,43.0,29.52,ESE,119,2.0,4.0,89,0.00,,,0.00,weatherlink.com 1.10,2013-05-12 20:06:00,
2013-05-12 12:21:00,46.0,43.0,29.52,ESE,119,1.0,3.0,88,0.00,,,0.00,weatherlink.com 1.10,2013-05-12 20:21:00,
2013-05-12 12:36:00,46.3,43.0,29.52,ESE,121,3.0,4.0,87,0.00,,,0.00,weatherlink.com 1.10,2013-05-12 20:36:00,
2013-05-12 12:51:00,47.0,43.0,29.52,SE,128,4.0,4.0,87,0.00,,,0.00,weatherlink.com 1.10,2013-05-12 20:51:00,
2013-05-12 13:06:00,46.6,43.0,29.52,South,174,2.0,5.0,86,0.00,,,0.00,weatherlink.com 1.10,2013-05-12 21:06:00,
2013-05-12 13:21:00,47.3,43.0,29.52,ESE,117,7.0,7.0,86,0.00,,,0.00,weatherlink.com 1.10,2013-05-12 21:21:00,
2013-05-12 13:36:00,47.2,43.0,29.52,SSW,203,3.0,5.0,84,0.00,,,0.00,weatherlink.com 1.10,2013-05-12 21:36:00,
2013-05-12 13:51:00,47.5,43.0,29.52,South,190,2.0,4.0,85,0.00,,,0.00,weatherlink.com 1.10,2013-05-12 21:51:00,
2013-05-12 14:06:00,48.1,43.0,29.52,South,190,0.0,3.0,83,0.00,,,0.00,weatherlink.com 1.10,2013-05-12 22:06:00,
2013-05-12 14:21:00,48.5,43.0,29.52,South,190,1.0,3.0,81,0.00,,,0.00,weatherlink.com 1.10,2013-05-12 22:21:00,
2013-05-12 14:36:00,48.5,41.0,29.52,WSW,257,2.0,5.0,76,0.00,,,0.00,weatherlink.com 1.10,2013-05-12 22:36:00,
2013-05-12 14:51:00,48.6,43.0,29.52,SSW,211,0.0,5.0,80,0.00,,,0.00,weatherlink.com 1.10,2013-05-12 22:51:00,
2013-05-12 15:06:00,48.8,43.0,29.52,WNW,285,0.0,4.0,79,0.00,,,0.00,weatherlink.com 1.10,2013-05-12 23:06:00,
2013-05-12 15:21:00,49.0,41.0,29.51,NNW,336,3.0,5.0,75,0.00,,,0.00,weatherlink.com 1.10,2013-05-12 23:21:00,
2013-05-12 15:36:00,49.2,41.0,29.51,North,355,1.0,5.0,74,0.00,,,0.00,weatherlink.com 1.10,2013-05-12 23:36:00,
2013-05-12 15:51:00,48.6,41.0,29.51,ENE,58,2.0,4.0,74,0.00,,,0.00,weatherlink.com 1.10,2013-05-12 23:51:00,
2013-05-12 16:06:00,48.6,41.0,29.51,North,5,1.0,3.0,74,0.00,,,0.00,weatherlink.com 1.10,2013-05-13 00:06:00,
2013-05-12 16:21:00,48.2,42.0,29.51,ENE,62,2.0,3.0,80,0.00,,,0.00,weatherlink.com 1.10,2013-05-13 00:21:00,
2013-05-12 16:36:00,47.5,43.0,29.50,SSW,210,0.0,3.0,83,0.00,,,0.00,weatherlink.com 1.10,2013-05-13 00:36:00,
2013-05-12 16:51:00,47.2,42.0,29.50,South,169,0.0,4.0,83,0.00,,,0.00,weatherlink.com 1.10,2013-05-13 00:51:00,
2013-05-12 17:06:00,46.7,42.0,29.50,South,169,4.0,4.0,84,0.00,,,0.00,weatherlink.com 1.10,2013-05-13 01:06:00,
2013-05-12 17:21:00,46.3,42.0,29.50,SSW,194,1.0,4.0,85,0.00,,,0.00,weatherlink.com 1.10,2013-05-13 01:21:00,
2013-05-12 17:36:00,46.0,41.0,29.50,South,175,2.0,4.0,84,0.00,,,0.00,weatherlink.com 1.10,2013-05-13 01:36:00,
2013-05-12 17:51:00,45.8,41.0,29.50,South,186,1.0,4.0,84,0.00,,,0.00,weatherlink.com 1.10,2013-05-13 01:51:00,
2013-05-12 18:06:00,45.7,42.0,29.50,South,186,2.0,3.0,85,0.00,,,0.00,weatherlink.com 1.10,2013-05-13 02:06:00,
2013-05-12 18:21:00,45.6,41.0,29.50,South,186,1.0,2.0,85,0.00,,,0.00,weatherlink.com 1.10,2013-05-13 02:21:00,
2013-05-12 18:36:00,45.6,42.0,29.50,South,186,1.0,3.0,86,0.00,,,0.00,weatherlink.com 1.10,2013-05-13 02:36:00,
2013-05-12 18:51:00,45.5,41.0,29.49,South,186,0.0,3.0,85,0.00,,,0.00,weatherlink.com 1.10,2013-05-13 02:51:00,
2013-05-12 19:06:00,45.4,41.0,29.49,South,186,1.0,3.0,84,0.00,,,0.00,weatherlink.com 1.10,2013-05-13 03:06:00,
2013-05-12 19:21:00,45.1,41.0,29.49,South,186,1.0,3.0,84,0.00,,,0.00,weatherlink.com 1.10,2013-05-13 03:21:00,
2013-05-12 19:36:00,44.9,40.0,29.49,South,186,0.0,2.0,84,0.00,,,0.00,weatherlink.com 1.10,2013-05-13 03:36:00,
2013-05-12 19:51:00,44.8,40.0,29.49,South,186,1.0,2.0,84,0.00,,,0.00,weatherlink.com 1.10,2013-05-13 03:51:00,
2013-05-12 20:06:00,44.4,40.0,29.49,South,186,0.0,2.0,83,0.00,,,0.00,weatherlink.com 1.10,2013-05-13 04:06:00,
2013-05-12 20:21:00,44.1,39.0,29.49,East,93,1.0,5.0,81,0.00,,,0.00,weatherlink.com 1.10,2013-05-13 04:21:00,
2013-05-12 20:36:00,43.4,38.0,29.49,East,93,1.0,2.0,82,0.00,,,0.00,weatherlink.com 1.10,2013-05-13 04:36:00,
2013-05-12 20:52:00,43.1,39.0,29.48,East,93,1.0,2.0,84,0.00,,,0.00,weatherlink.com 1.10,2013-05-13 04:52:00,
2013-05-12 21:07:00,43.0,39.0,29.49,East,93,0.0,0.0,87,0.00,,,0.00,weatherlink.com 1.10,2013-05-13 05:07:00,
2013-05-12 21:22:00,42.9,39.0,29.48,East,93,0.0,0.0,87,0.00,,,0.00,weatherlink.com 1.10,2013-05-13 05:22:00,
2013-05-12 21:37:00,42.8,40.0,29.48,East,93,0.0,0.0,88,0.00,,,0.00,weatherlink.com 1.10,2013-05-13 05:37:00,
2013-05-12 21:52:00,42.3,39.0,29.49,East,93,0.0,1.0,89,0.00,,,0.00,weatherlink.com 1.10,2013-05-13 05:52:00,
2013-05-12 22:07:00,41.5,39.0,29.49,East,93,0.0,1.0,91,0.00,,,0.00,weatherlink.com 1.10,2013-05-13 06:07:00,
2013-05-12 22:22:00,41.2,39.0,29.48,East,93,0.0,1.0,92,0.01,,,0.01,weatherlink.com 1.10,2013-05-13 06:22:00,
2013-05-12 22:37:00,41.0,39.0,29.49,East,93,0.0,2.0,91,0.01,,,0.01,weatherlink.com 1.10,2013-05-13 06:37:00,
2013-05-12 22:52:00,40.3,38.0,29.49,East,93,0.0,1.0,91,0.01,,,0.01,weatherlink.com 1.10,2013-05-13 06:52:00,
2013-05-12 23:07:00,40.4,38.0,29.49,East,93,1.0,2.0,92,0.02,,,0.02,weatherlink.com 1.10,2013-05-13 07:07:00,
2013-05-12 23:22:00,40.6,39.0,29.49,East,93,0.0,0.0,93,0.02,,,0.03,weatherlink.com 1.10,2013-05-13 07:22:00,
2013-05-12 23:37:00,40.3,39.0,29.49,East,93,0.0,1.0,93,0.02,,,0.03,weatherlink.com 1.10,2013-05-13 07:37:00,
2013-05-12 23:52:00,39.9,38.0,29.48,East,93,0.0,2.0,94,0.02,,,0.03,weatherlink.com 1.10,2013-05-13 07:52:00,